Date String (YYYY-MM-DD hh:mm:ss) UTC,Instrument flags,Ambient pressure (hPa),Sample flow (lpm),Bypass flow (lpm),Sample temperature (°C),Ambient temperature (°C),ASC tube jacket temperature (°C),LED temperature (°C),Box temperature (°C),Sample RH (%),Span deviation,Mass concentration (μg/m³),Mass concentration (μg/m³),Mass concentration (μg/m³)
DateTimeUTC,F1_M11,P_M11,Q1_M11,Q2_M11,T1_M11,T2_M11,T3_M11,T4_M11,T5_M11,U1_M11,ZSPAN_M11,X0_M11,X2_M11,X1_M11
2021-10-30 22:00:00,,0825.9,5.00,0.00,30.4,29.5,00.0,39.2,32.2,13.3,0000.0,0011.16,0003.37,0002.04
2021-10-30 22:01:00,,0826.0,5.01,0.00,30.4,29.5,00.0,39.2,32.2,13.2,0000.0,0011.89,0003.41,0002.04
2021-10-30 22:02:00,,0825.9,5.00,0.00,30.4,29.6,00.0,39.2,32.3,13.1,0000.0,0012.71,0003.44,0002.04
2021-10-30 22:03:00,,0825.9,5.00,0.00,30.4,29.6,00.0,39.3,32.3,13.2,0000.0,0013.34,0003.45,0002.06
2021-10-30 22:04:00,,0825.8,5.00,0.00,30.5,29.6,00.0,39.3,32.3,13.2,0000.0,0013.51,0003.51,0002.07
2021-10-30 22:05:00,,0825.8,5.00,0.00,30.4,27.9,00.0,39.3,32.0,13.3,0000.0,0013.69,0003.51,0002.08
2021-10-30 22:06:00,,0825.8,4.99,0.00,30.3,26.6,00.0,39.3,31.7,13.4,0000.0,0013.57,0003.51,0002.12
2021-10-30 22:07:00,,0825.9,5.01,0.00,30.2,26.8,00.0,39.2,31.7,13.5,0000.0,0015.03,0003.50,0002.13
2021-10-30 22:08:00,,0825.9,5.01,0.00,30.1,27.2,00.0,39.2,31.7,13.6,0000.0,0015.74,0003.46,0002.11
2021-10-30 22:09:00,,0825.8,4.99,0.00,30.1,27.6,00.0,39.2,31.8,13.5,0000.0,0016.10,0003.40,0002.11
2021-10-30 22:10:00,,0825.9,5.00,0.00,30.1,27.9,00.0,39.1,31.8,13.5,0000.0,0015.82,0003.35,0002.12
2021-10-30 22:11:00,,0825.9,5.00,0.00,30.1,28.3,00.0,39.1,31.9,13.5,0000.0,0015.56,0003.32,0002.10
2021-10-30 22:12:00,,0825.9,4.99,0.00,30.1,28.5,00.0,39.1,31.9,13.5,0000.0,0014.84,0003.22,0002.10
2021-10-30 22:13:00,,0826.0,5.02,0.00,30.1,28.7,00.0,39.1,32.0,13.5,0000.0,0014.47,0003.17,0002.11
2021-10-30 22:14:00,,0826.0,4.99,0.00,30.2,28.9,00.0,39.1,32.0,13.4,0000.0,0014.78,0003.16,0002.09
2021-10-30 22:15:00,,0826.0,5.01,0.00,30.2,29.0,00.0,39.1,32.0,13.4,0000.0,0014.61,0003.13,0002.08
2021-10-30 22:16:00,,0826.0,5.01,0.00,30.2,29.1,00.0,39.2,32.0,13.4,0000.0,0013.98,0003.13,0002.07
2021-10-30 22:17:00,,0826.0,4.99,0.00,30.3,29.2,00.0,39.2,32.1,13.5,0000.0,0014.11,0003.14,0002.06
2021-10-30 22:18:00,,0826.1,4.99,0.00,30.3,29.3,00.0,39.2,32.1,13.6,0000.0,0012.99,0003.14,0002.06
2021-10-30 22:19:00,,0826.2,5.01,0.00,30.3,29.3,00.0,39.2,32.2,13.6,0000.0,0012.07,0003.15,0002.07
2021-10-30 22:20:00,,0826.2,5.00,0.00,30.4,29.4,00.0,39.2,32.2,13.7,0000.0,0011.73,0003.18,0002.04
2021-10-30 22:21:00,,0826.2,5.00,0.00,30.4,29.4,00.0,39.2,32.2,13.8,0000.0,0012.96,0003.20,0002.01
2021-10-30 22:22:00,,0826.2,4.99,0.00,30.4,29.5,00.0,39.3,32.3,13.7,0000.0,0013.23,0003.21,0001.98
2021-10-30 22:23:00,,0826.2,5.00,0.00,30.5,29.5,00.0,39.3,32.3,13.7,0000.0,0014.14,0003.21,0001.93
2021-10-30 22:24:00,,0826.2,5.00,0.00,30.5,29.6,00.0,39.3,32.3,13.7,0000.0,0014.64,0003.20,0001.89
2021-10-30 22:25:00,,0826.2,5.00,0.00,30.5,29.6,00.0,39.3,32.4,13.7,0000.0,0014.42,0003.19,0001.85
2021-10-30 22:26:00,,0826.2,5.01,0.00,30.5,28.7,00.0,39.4,32.2,13.7,0000.0,0014.24,0003.14,0001.80
2021-10-30 22:27:00,,0826.2,5.01,0.00,30.4,26.8,00.0,39.4,31.8,13.7,0000.0,0013.84,0003.14,0001.75
2021-10-30 22:28:00,,0826.2,4.99,0.00,30.3,26.7,00.0,39.3,31.7,13.8,0000.0,0013.45,0003.06,0001.69
2021-10-30 22:29:00,,0826.2,5.00,0.00,30.2,27.1,00.0,39.3,31.8,13.9,0000.0,0013.02,0003.00,0001.64
2021-10-30 22:30:00,,0826.1,5.00,0.00,30.2,27.5,00.0,39.2,31.8,13.9,0000.0,0012.95,0002.92,0001.59
2021-10-30 22:31:00,,0826.2,5.00,0.00,30.2,27.9,00.0,39.2,31.8,14.0,0000.0,0013.85,0002.89,0001.59
2021-10-30 22:32:00,,0826.2,5.00,0.00,30.2,28.2,00.0,39.2,31.9,14.0,0000.0,0013.82,0002.88,0001.59
2021-10-30 22:33:00,,0826.2,4.99,0.00,30.2,28.4,00.0,39.2,31.9,14.0,0000.0,0015.03,0002.89,0001.60
2021-10-30 22:34:00,,0826.2,5.00,0.00,30.2,28.7,00.0,39.2,32.0,14.1,0000.0,0014.79,0002.89,0001.60
2021-10-30 22:35:00,,0826.2,5.00,0.00,30.2,28.9,00.0,39.2,32.0,14.1,0000.0,0013.65,0002.79,0001.59
2021-10-30 22:36:00,,0826.2,5.01,0.00,30.2,29.0,00.0,39.2,32.0,14.1,0000.0,0012.34,0002.74,0001.58
2021-10-30 22:37:00,,0826.2,5.00,0.00,30.3,29.1,00.0,39.2,32.1,14.0,0000.0,0012.13,0002.80,0001.57
2021-10-30 22:38:00,,0826.2,4.99,0.00,30.3,29.2,00.0,39.2,32.1,14.0,0000.0,0012.54,0002.75,0001.56
2021-10-30 22:39:00,,0826.2,5.00,0.00,30.3,29.2,00.0,39.2,32.1,14.0,0000.0,0012.76,0002.73,0001.56
2021-10-30 22:40:00,,0826.3,5.00,0.00,30.3,29.3,00.0,39.2,32.2,14.0,0000.0,0012.80,0002.70,0001.55
2021-10-30 22:41:00,,0826.4,5.00,0.00,30.4,29.4,00.0,39.2,32.2,14.0,0000.0,0013.58,0002.67,0001.53
2021-10-30 22:42:00,,0826.5,5.01,0.00,30.4,29.5,00.0,39.3,32.2,14.0,0000.0,0013.16,0002.61,0001.51
2021-10-30 22:43:00,,0826.5,5.00,0.00,30.4,29.5,00.0,39.3,32.3,14.0,0000.0,0012.27,0002.53,0001.46
2021-10-30 22:44:00,,0826.5,5.01,0.00,30.5,29.6,00.0,39.3,32.3,14.0,0000.0,0010.77,0002.50,0001.43
2021-10-30 22:45:00,,0826.5,5.00,0.00,30.5,29.6,00.0,39.3,32.3,13.9,0000.0,0010.60,0002.47,0001.42
2021-10-30 22:46:00,,0826.5,4.99,0.00,30.5,29.6,00.0,39.4,32.3,13.9,0000.0,0010.86,0002.59,0001.44
2021-10-30 22:47:00,,0826.5,5.01,0.00,30.5,28.2,00.0,39.4,32.0,13.9,0000.0,0011.24,0002.61,0001.44
2021-10-30 22:48:00,,0826.5,5.00,0.00,30.3,26.7,00.0,39.4,31.7,14.1,0000.0,0011.50,0002.54,0001.42
2021-10-30 22:49:00,,0826.5,5.00,0.00,30.2,26.7,00.0,39.3,31.7,14.2,0000.0,0010.98,0002.49,0001.42
2021-10-30 22:50:00,,0826.5,5.00,0.00,30.1,27.1,00.0,39.3,31.6,14.3,0000.0,0011.56,0002.47,0001.41
2021-10-30 22:51:00,,0826.5,4.99,0.00,30.1,27.5,00.0,39.2,31.7,14.4,0000.0,0011.50,0002.43,0001.40
2021-10-30 22:52:00,,0826.5,5.00,0.00,30.1,27.9,00.0,39.2,31.8,14.4,0000.0,0010.94,0002.45,0001.39
2021-10-30 22:53:00,,0826.4,5.00,0.00,30.1,28.2,00.0,39.2,31.8,14.4,0000.0,0010.41,0002.52,0001.40
2021-10-30 22:54:00,,0826.5,5.01,0.00,30.1,28.4,00.0,39.2,31.9,14.4,0000.0,0010.30,0002.61,0001.39
2021-10-30 22:55:00,,0826.5,5.01,0.00,30.1,28.6,00.0,39.1,31.9,14.4,0000.0,0010.83,0002.64,0001.39
2021-10-30 22:56:00,,0826.5,4.99,0.00,30.2,28.8,00.0,39.1,32.0,14.3,0000.0,0010.83,0002.66,0001.38
2021-10-30 22:57:00,,0826.5,4.99,0.00,30.2,29.0,00.0,39.2,32.0,14.3,0000.0,0010.39,0002.56,0001.35
2021-10-30 22:58:00,,0826.6,5.00,0.00,30.2,29.1,00.0,39.2,32.0,14.3,0000.0,0010.91,0002.55,0001.33
2021-10-30 22:59:00,,0826.5,5.01,0.00,30.3,29.2,00.0,39.2,32.1,14.2,0000.0,0010.43,0002.52,0001.32
